GW3636 Weather Reports


time (UTC)temp
F
wind
direction
speed
knots
gust
knots
rain 1hr
in
rain 24hr
in
rain mn
in
humidity
%
barometer
mb
20260505035547 67 186 6.1 15.6 0.00 0.00 0.00 57 1009.1
20260505035050 67 153 7.8 13.9 0.00 0.00 0.00 57 1009.0
20260505034556 67 193 7.0 12.2 0.00 0.00 0.00 57 1009.0
20260505034047 67 175 6.1 10.4 0.00 0.00 0.00 57 1008.9
20260505033547 67 178 5.2 10.4 0.00 0.00 0.00 57 1008.9
20260505033053 67 179 5.2 9.6 0.00 0.00 0.00 57 1008.8
20260505032547 67 163 5.2 9.6 0.00 0.00 0.00 56 1008.8
20260505032050 68 180 6.1 9.6 0.00 0.00 0.00 56 1008.8
20260505031557 68 207 5.2 10.4 0.00 0.00 0.00 56 1008.8
20260505031045 68 173 6.1 10.4 0.00 0.00 0.00 56 1008.7
20260505030549 68 191 5.2 10.4 0.00 0.00 0.00 56 1008.7
20260505030104 68 170 4.3 9.6 0.00 0.00 0.00 56 1008.6
20260505025547 68 159 5.2 9.6 0.00 0.00 0.00 55 1008.7
20260505025048 68 184 3.5 9.6 0.00 0.00 0.00 55 1008.7
20260505024600 69 181 5.2 11.3 0.00 0.00 0.00 55 1008.7
20260505024046 69 160 6.1 11.3 0.00 0.00 0.00 55 1008.6
20260505023546 69 194 5.2 10.4 0.00 0.00 0.00 55 1008.7
20260505023059 69 178 6.1 10.4 0.00 0.00 0.00 55 1008.7
20260505022547 69 182 6.1 11.3 0.00 0.00 0.00 55 1008.8
20260505022048 69 179 6.1 11.3 0.00 0.00 0.00 55 1008.7
20260505021554 69 180 5.2 10.4 0.00 0.00 0.00 55 1008.8
20260505021046 69 178 5.2 9.6 0.00 0.00 0.00 54 1008.6
20260505020548 70 197 4.3 8.7 0.00 0.00 0.00 54 1008.7
20260505015548 70 189 3.5 7.0 0.00 0.00 0.00 53 1008.6
20260505015048 70 186 4.3 7.0 0.00 0.00 0.00 53 1008.6
20260505014557 70 188 4.3 7.0 0.00 0.00 0.00 52 1008.5
20260505014051 71 192 3.5 7.8 0.00 0.00 0.00 52 1008.5
20260505013547 71 183 4.3 7.8 0.00 0.00 0.00 51 1008.5
20260505013102 71 183 4.3 8.7 0.00 0.00 0.00 51 1008.5
20260505012549 71 183 3.5 8.7 0.00 0.00 0.00 51 1008.5
20260505012047 72 177 4.3 9.6 0.00 0.00 0.00 51 1008.5
20260505011554 72 171 4.3 9.6 0.00 0.00 0.00 50 1008.5
20260505011047 72 175 5.2 8.7 0.00 0.00 0.00 50 1008.4
20260505010548 72 200 5.2 8.7 0.00 0.00 0.00 50 1008.5
20260505010115 72 180 4.3 7.8 0.00 0.00 0.00 49 1008.4
20260505005547 72 190 4.3 9.6 0.00 0.00 0.00 49 1008.4
20260505005048 72 184 5.2 9.6 0.00 0.00 0.00 49 1008.4
20260505004555 73 183 5.2 7.8 0.00 0.00 0.00 49 1008.5
20260505004046 73 182 5.2 7.8 0.00 0.00 0.00 49 1008.5
20260505003551 73 205 5.2 7.8 0.00 0.00 0.00 49 1008.6
20260505003057 73 187 5.2 11.3 0.00 0.00 0.00 48 1008.5
20260505002547 73 190 6.1 11.3 0.00 0.00 0.00 48 1008.5
20260505002043 73 198 5.2 9.6 0.00 0.00 0.00 48 1008.4
20260505001555 74 193 5.2 9.6 0.00 0.00 0.00 48 1008.4
20260505001046 74 188 5.2 7.8 0.00 0.00 0.00 47 1008.3
20260505000547 74 178 4.3 7.0 0.00 0.00 0.00 47 1008.3
20260505000100 74 194 4.3 8.7 0.00 0.00 0.00 47 1008.2
20260504235547 74 192 5.2 8.7 0.00 0.00 0.00 46 1008.2
20260504235047 74 174 5.2 10.4 0.00 0.00 0.00 46 1008.2
20260504234554 75 171 6.1 10.4 0.00 0.00 0.00 46 1008.2
20260504234048 75 186 6.1 13.9 0.00 0.00 0.00 45 1008.3
20260504233546 75 185 6.1 13.9 0.00 0.00 0.00 45 1008.4
20260504233101 75 180 8.7 13.9 0.00 0.00 0.00 45 1008.5
20260504232549 75 192 8.7 13.0 0.00 0.00 0.00 44 1008.4
20260504232046 75 194 7.8 11.3 0.00 0.00 0.00 45 1008.4
20260504231552 75 215 7.0 14.8 0.00 0.00 0.00 44 1008.4
20260504231043 75 194 8.7 15.6 0.00 0.00 0.00 44 1008.5
20260504230546 75 215 8.7 20.0 0.00 0.00 0.00 43 1008.6
20260504230100 76 216 13.9 20.9 0.00 0.00 0.00 43 1008.7
20260504225543 76 213 12.2 20.9 0.00 0.00 0.00 42 1008.5
20260504225047 76 219 11.3 23.5 0.00 0.00 0.00 42 1008.4
20260504224552 76 190 10.4 23.5 0.00 0.00 0.00 43 1008.4
20260504224046 76 229 7.8 14.8 0.00 0.00 0.00 43 1008.4
20260504223548 76 228 8.7 14.8 0.00 0.00 0.00 44 1008.4
20260504223100 76 190 7.0 15.6 0.00 0.00 0.00 44 1008.6
20260504222544 76 221 7.8 16.5 0.00 0.00 0.00 44 1008.5
20260504222046 76 224 12.2 16.5 0.00 0.00 0.00 43 1008.6
20260504221552 76 194 8.7 16.5 0.00 0.00 0.00 44 1008.6
20260504221043 76 209 7.0 14.8 0.00 0.00 0.00 46 1008.6
20260504220548 76 226 8.7 17.4 0.00 0.00 0.00 44 1008.6
20260504220052 76 251 12.2 20.0 0.00 0.00 0.00 44 1008.7
20260504215547 76 216 13.0 19.1 0.00 0.00 0.00 44 1008.8
20260504215046 76 208 11.3 19.1 0.00 0.00 0.00 44 1008.8
20260504214608 76 216 13.0 19.1 0.00 0.00 0.00 44 1008.7
20260504214047 76 219 13.0 19.1 0.00 0.00 0.00 43 1008.8
20260504213547 76 197 12.2 18.2 0.00 0.00 0.00 44 1008.9
20260504213121 76 200 10.4 18.2 0.00 0.00 0.00 45 1008.8
20260504212547 76 211 11.3 16.5 0.00 0.00 0.00 45 1008.8
20260504212046 76 222 10.4 18.2 0.00 0.00 0.00 45 1008.7
20260504211556 76 225 13.9 18.2 0.00 0.00 0.00 44 1008.6
20260504211048 76 211 13.0 18.2 0.00 0.00 0.00 44 1008.8
20260504210548 76 221 8.7 18.2 0.00 0.00 0.00 46 1008.9
20260504210058 75 214 11.3 22.6 0.00 0.00 0.00 45 1009.0
20260504205546 75 197 13.9 22.6 0.00 0.00 0.00 46 1009.0
20260504205043 75 211 11.3 15.6 0.00 0.00 0.00 46 1009.1
20260504204555 74 213 7.8 15.6 0.00 0.00 0.00 50 1009.2
20260504204047 74 181 4.3 14.8 0.00 0.00 0.00 51 1009.3
20260504203546 74 190 7.0 14.8 0.00 0.00 0.00 52 1009.2
20260504203106 73 174 9.6 18.2 0.00 0.00 0.00 51 1009.3
20260504202547 73 194 10.4 18.2 0.00 0.00 0.00 51 1009.3
20260504202047 74 221 10.4 20.0 0.00 0.00 0.00 51 1009.4
20260504201613 74 213 10.4 20.0 0.00 0.00 0.00 50 1009.5
20260504201051 74 197 11.3 17.4 0.00 0.00 0.00 51 1009.4
20260504200547 73 174 9.6 20.9 0.00 0.00 0.00 53 1009.5
20260504200053 72 194 12.2 20.9 0.00 0.00 0.00 52 1009.5
20260504195545 72 168 13.9 20.9 0.00 0.00 0.00 52 1009.7
20260504195047 72 181 13.0 19.1 0.00 0.00 0.00 53 1009.7
20260504194602 72 215 11.3 19.1 0.00 0.00 0.00 53 1009.7
20260504194048 71 201 11.3 20.0 0.00 0.00 0.00 53 1009.9
20260504193547 71 213 10.4 20.0 0.00 0.00 0.00 54 1010.0
20260504193102 71 167 11.3 17.4 0.00 0.00 0.00 54 1010.1
20260504192547 71 182 11.3 17.4 0.00 0.00 0.00 54 1010.2
20260504192051 70 157 7.0 16.5 0.00 0.00 0.00 54 1010.2
20260504191604 70 147 8.7 15.6 0.00 0.00 0.00 54 1010.3
20260504191048 70 171 8.7 14.8 0.00 0.00 0.00 54 1010.3
20260504190548 69 181 7.8 14.8 0.00 0.00 0.00 56 1010.4
20260504190114 69 127 7.8 17.4 0.00 0.00 0.00 55 1010.4
20260504185549 68 175 9.6 20.0 0.00 0.00 0.00 55 1010.4
20260504185045 67 219 12.2 20.0 0.00 0.00 0.00 56 1010.4
20260504184613 67 197 12.2 20.0 0.00 0.00 0.00 56 1010.5
20260504184046 68 182 8.7 17.4 0.00 0.00 0.00 55 1010.6
20260504183547 67 181 9.6 16.5 0.00 0.00 0.00 57 1010.6
20260504183059 66 188 8.7 17.4 0.00 0.00 0.00 58 1010.7
20260504182546 65 152 8.7 20.9 0.00 0.00 0.00 60 1010.9
20260504182047 65 178 11.3 20.9 0.00 0.00 0.00 60 1011.0
20260504181603 65 156 13.9 20.9 0.00 0.00 0.00 59 1011.1
20260504181047 66 178 5.2 18.2 0.00 0.00 0.00 57 1010.8
20260504180547 66 229 12.2 18.2 0.00 0.00 0.00 55 1011.8
20260504180056 66 244 9.6 16.5 0.00 0.00 0.00 55 1012.0
20260504175546 66 225 11.3 18.2 0.00 0.00 0.00 55 1011.9
20260504175047 67 223 10.4 20.0 0.00 0.00 0.00 54 1011.7
20260504174559 67 188 13.0 20.0 0.00 0.00 0.00 54 1011.4
20260504174047 67 225 14.8 19.1 0.00 0.00 0.00 53 1011.2
20260504173549 67 211 13.9 19.1 0.00 0.00 0.00 52 1011.0
20260504173103 68 229 13.0 19.1 0.00 0.00 0.00 52 1011.0
20260504172547 68 192 11.3 18.2 0.00 0.00 0.00 54 1010.9
20260504172048 67 200 11.3 17.4 0.00 0.00 0.00 55 1010.8
20260504171613 67 170 10.4 19.1 0.00 0.00 0.00 55 1010.8
20260504171047 66 203 11.3 20.9 0.00 0.00 0.00 57 1010.7
20260504170547 66 188 11.3 20.9 0.00 0.00 0.00 57 1010.8
20260504160105 62 206 13.9 22.6 0.00 0.00 0.00 62 1011.6
20260504151047 59 202 12.2 20.0 0.00 0.00 0.00 69 1012.2
20260504150548 59 217 10.4 20.0 0.00 0.00 0.00 71 1012.4
20260504141047 56 216 8.7 17.4 0.00 0.00 0.00 76 1013.2
20260504140548 55 186 10.4 22.6 0.00 0.00 0.00 76 1013.1
20260504140108 55 209 10.4 22.6 0.00 0.00 0.00 76 1013.1
20260504130547 53 220 10.4 16.5 0.00 0.00 0.00 79 1013.6
20260504120109 54 198 11.3 18.2 0.00 0.00 0.00 64 1013.0
20260504110549 51 154 7.0 12.2 0.00 0.00 0.00 64 1012.6
20260504110105 51 165 5.2 12.2 0.00 0.00 0.00 64 1012.6
20260504100549 51 175 5.2 8.7 0.00 0.00 0.00 61 1012.7
20260504081603 51 161 3.5 6.1 0.00 0.00 0.00 60 1013.2
20260504081048 51 159 3.5 7.8 0.00 0.00 0.00 60 1013.1
20260504080546 51 156 3.5 7.8 0.00 0.00 0.00 59 1013.2
20260504060105 53 187 4.3 6.1 0.00 0.00 0.00 59 1014.3
20260504050547 54 190 5.2 9.6 0.00 0.00 0.00 55 1014.7
20260504045548 53 179 4.3 13.9 0.00 0.00 0.00 58 1014.8
20260504045049 53 202 7.0 13.9 0.00 0.00 0.00 58 1014.7
20260504044554 53 163 7.0 13.0 0.00 0.00 0.00 56 1014.6
20260504044047 53 179 6.1 11.3 0.00 0.00 0.00 58 1014.3
20260504043547 53 136 5.2 8.7 0.00 0.00 0.00 59 1014.5
20260504043101 52 161 2.6 5.2 0.00 0.00 0.00 62 1014.9
20260504042546 52 175 1.7 4.3 0.00 0.00 0.00 65 1015.0
20260504042046 52 178 2.6 6.1 0.00 0.00 0.00 66 1015.0
20260504041555 52 184 2.6 6.1 0.00 0.00 0.00 68 1015.1
20260504041046 52 181 3.5 6.1 0.00 0.00 0.00 66 1015.2
20260504040551 52 175 2.6 6.1 0.00 0.00 0.00 64 1015.2
20260504040054 52 170 3.5 7.0 0.00 0.00 0.00 67 1015.2